Simultaneous Nadir Overpasses (SNOs) Predictions

Prediction of SNOs between AQUA and LANDSAT-8 Satellite Orbit:

Table of predicted SNOs for the next 14.0 days since TLE Epoch: 8/31/2024
Index Date (AQUA) Time (AQUA) Lat,Lon (AQUA) SZA (AQUA ) Date (LANDSAT-8) Time (LANDSAT-8) Lat,Lon (LANDSAT-8) SZA (LANDSAT-8 ) Distance(km) Time Diff (sec)
1 09/13/2024 23:33:16 -73.49, 11.52 109.82 09/13/2024 23:32:10 -73.47, 8.98 109.91 80.50 66
2 09/14/2024 00:22:40 73.61, 178.93 70.31 09/14/2024 00:21:33 73.58, 176.85 70.23 65.15 67
3 09/14/2024 01:12:06 -73.92, -14.10 109.39 09/14/2024 01:10:55 -73.89, -14.85 109.45 23.28 71
4 09/14/2024 02:01:30 74.04, 153.29 70.74 09/14/2024 02:00:18 74.00, 153.05 70.69 8.63 72
5 09/14/2024 02:50:51 -74.09, -39.16 109.21 09/14/2024 02:49:44 -74.09, -39.10 109.21 1.85 67
6 09/14/2024 03:40:13 74.10, 128.46 70.83 09/14/2024 03:39:09 74.10, 128.56 70.82 3.00 64



Historial Predications of SNOs between AQUA and LANDSAT-8
